SNAP-3 ALICE

Last updated on Sun Jun 21 2026 00:03:50 GMT+0000 (Coordinated Universal Time)

1 40970U 15058G 26171.18605534 .00123021 00000+0 14266-2 0 9997 2 40970 64.7494 93.5606 0027278 10.9470 349.2264 15.60714090117352
UTC large
Height (km)
Speed (km/s)
/
Latitude / Longitude
Inclination (degrees)
Orbital Period (minutes)
Azimuth
Elevation
Range (km)
Doppler Factor

Next 0 passes for location: London (51.5072 / 0.1276)

No passes found over London.
SNAP-3 ALICE